Regional Weather Roundup
Issued by NWS Albany, NY

Home | Current Version | Previous Version | Text Only | Print | Product List | Glossary On
Versions: 1 2 3 4 5 6 7 8 9 10 11 12 13 14 15 16 17 18 19 20 21 22 23 24 25 26 27 28 29 30 31 32 33 34 35 36 37 38 39 40 41 42 43 44 45 46 47 48 49 50
000
ASUS41 KALY 250210
RWRALY

NEW YORK STATE HOURLY WEATHER ROUNDUP
NATIONAL WEATHER SERVICE ALBANY NY
1000 PM EDT FRI APR 24 2015

NOTE: "FAIR" INDICATES FEW OR NO CLOUDS BELOW 12,000 FEET WITH NO
SIGNIFICANT WEATHER AND/OR NO OBSTRUCTIONS TO VISIBILITY.

NYZ032-033-038>043-046>054-057>066-NYZ062>081-250300-
EAST


CITY           SKY/WX    TMP DP  RH WIND       PRES   REMARKS
ALBANY         CLOUDY    38  20  48 NW15      29.93R WCI  29
GLENS FALLS    CLOUDY    38  21  50 W7        29.88S WCI  33
POUGHKEEPSIE   CLEAR     37  20  50 NW7       29.93S WCI  32
NEWBURGH       PTCLDY    36  21  55 NW6G14    29.94R WCI  31
MONTGOMERY     CLEAR     36  20  52 NW9       29.92F WCI  29
WHITE PLAINS   PTCLDY    37  19  48 NW22G35   29.89S WCI  26
ISLIP          PTCLDY    40  22  48 NW17G26   29.88R WCI  31
NEW YORK CITY  CLEAR     42  21  43 N23G32    29.92S
CENTRAL PARK   CLEAR     41  20  43 N9        29.95R
$$

NYZ005>009-017-018-044>046-055-056-250300-
CENTRAL


CITY           SKY/WX    TMP DP  RH WIND       PRES   REMARKS
FULTON         CLEAR     35  24  64 W12       29.96S WCI  27
SYRACUSE       CLEAR     34  22  61 W14       29.96F WCI  25
ROME           CLEAR     32  22  66 W6        29.96S WCI  26
ELMIRA         CLOUDY    39  22  50 NW6       29.96S WCI  35
BINGHAMTON     MOCLDY    31  21  66 NW5       29.91F WCI  26
MONTICELLO     FAIR      28  19  69 NW7       29.91F WCI  21
$$

NYZ026>034-041>043-250300-
NORTH


CITY           SKY/WX    TMP DP  RH WIND       PRES   REMARKS
WATERTOWN      CLOUDY    39  26  59 W10       29.94R WCI  32
FORT DRUM      NOT AVBL
MASSENA        CLOUDY    37  22  54 W8        29.91S WCI  31
SARANAC LAKE   CLOUDY    31  19  61 VRB7      29.82S WCI  24
PLATTSBURGH    CLOUDY    38  20  48 NW7       29.86S WCI  33
$$

NYZ001>004-010>016-019>021-250300-
WEST


CITY           SKY/WX    TMP DP  RH WIND       PRES   REMARKS
NIAGARA FALLS  CLEAR     36  22  56 NW6       30.01S WCI  31
BUFFALO        PTCLDY    37  19  48 NW8       30.01S WCI  31
DUNKIRK        CLEAR     35  26  69 SW6       30.03S WCI  30
JAMESTOWN      CLEAR     32  18  55 W8        29.99S WCI  25
WELLSVILLE     FAIR      32  19  58 NW12      29.96S WCI  23
ROCHESTER      CLEAR     36  24  62 NW9       30.00R WCI  29
PENN YAN       CLOUDY    39  23  52 W6        29.97S WCI  35
$$

             KEY
       WCI = WIND CHILL INDEX
       VSB = VISIBILITY
       HX  = HEAT INDEX
$$


USA.gov is the U.S. government's official web portal to all federal, state and local government web resources and services.